Location: SBMNH
(34.4407°N, 119.7157°W)
Time: 22:36:23
(UTC-07:00)

Tiangong - Pass Details

Date: 16 August 2022
Orbit: 382 x 386 km, 41.5° (Epoch: 05 October)

Event Time Altitude Azimuth Distance (km) Brightness Sun altitude
Rises 20:52:37 0° 255° (WSW) 2,248 2.5 -13.7°
Reaches altitude 10° 20:54:43 10° 260° (W) 1,399 1.5 -14.1°
Maximum altitude 20:57:49 52° 339° (NNW) 485 -1.4 -14.7°
Enters shadow 21:00:23 14° 54° (NE) 1,198 0.1 -15.2°
